Location: Appletree Creek
(38.7363°N, 122.6833°W)
Time: 18:15:38
(UTC+00:00)

Cosmos 1812 - Pass Details

Date: 18 September 2020
Orbit: 517 x 521 km, 82.5° (Epoch: 19 October)

Event Time Altitude Azimuth Distance (km) Brightness Sun altitude
Exits shadow 12:35:56 26° 218° (SW) 1,041 3.8 -16.1°
Maximum altitude 12:37:45 49° 280° (W) 678 2.9 -15.8°
Drops below altitude 10° 12:41:31 10° 356° (N) 1,760 5.5 -15.1°
Sets 12:43:43 0° 2° (N) 2,653 6.5 -14.6°
